Change the Weather History Date:

Saturday, December 7, 2013

  Actual Average (KSZL) Record (KSZL)
Temperature  
Mean Temperature 17 °F -  
Max Temperature 24 °F 44 °F 62 °F (2001)
Min Temperature 10 °F 28 °F 5 °F (2006)
Degree Days  
Heating Degree Days 48    
Moisture  
Dew Point 5 °F    
Average Humidity 59    
Maximum Humidity 79    
Minimum Humidity 43    
Precipitation  
Precipitation 0.00 in - - ()
Sea Level Pressure  
Sea Level Pressure 30.59 in    
Wind  
Wind Speed 7 mph (NE)    
Max Wind Speed 13 mph    
Max Gust Speed -    
Visibility 10 miles    
Events      
Averages and records for this station are not official NWS values.
T = Trace of Precipitation, MM = Missing Value Source: NWS Daily Summary

Daily Weather History Graph

Daily Weather History Graph

Search for Another Location

Airport or City:

Trip Planner

Search our weather history database for the weather conditions in past years. The results will help you decide how hot, cold, wet, or windy it might be!

Date:

Astronomy

Dec. 07, 2013 Rise Set
Actual Time 7:18 AM CST 4:54 PM CST
Civil Twilight 6:49 AM CST 5:23 PM CST
Nautical Twilight 6:16 AM CST 5:56 PM CST
Astronomical Twilight 5:44 AM CST 6:28 PM CST
Moon 11:06 AM CST (12/7) 10:33 PM CST (12/7)
Length of Visible Light 10h 34m
Length of Day
9h 35m
Waxing Crescent, 29% of the Moon is Illuminated
Dec 7
Waxing Crescent
Dec 9
First Quarter
Dec 17
Full
Dec 25
Last Quarter
Jan 1
New

Hourly Weather History & Observations

Time (CST) Temp. Windchill Dew Point Humidity Pressure Visibility Wind Dir Wind Speed Gust Speed Precip Events Conditions
12:15 AM 14.0 °F 2.9 °F 3.2 °F 62% 30.63 in 10.0 mi North 8.1 mph - N/A   Clear
12:35 AM 14.0 °F 3.9 °F 3.2 °F 62% 30.63 in 10.0 mi NNE 6.9 mph - N/A   Clear
12:55 AM 14.0 °F 3.9 °F 3.2 °F 62% 30.63 in 10.0 mi NNE 6.9 mph - N/A   Clear
1:15 AM 12.2 °F 1.7 °F 3.2 °F 67% 30.63 in 10.0 mi NNE 6.9 mph - N/A   Clear
1:35 AM 12.2 °F 2.9 °F 3.2 °F 67% 30.63 in 10.0 mi NNE 5.8 mph - N/A   Clear
1:55 AM 12.2 °F 4.3 °F 3.2 °F 67% 30.64 in 10.0 mi NNE 4.6 mph - N/A   Clear
2:15 AM 12.2 °F 2.9 °F 3.2 °F 67% 30.64 in 10.0 mi NNE 5.8 mph - N/A   Clear
2:35 AM 12.2 °F 1.7 °F 3.2 °F 67% 30.64 in 10.0 mi NNE 6.9 mph - N/A   Clear
2:55 AM 12.2 °F 2.9 °F 3.2 °F 67% 30.65 in 10.0 mi NNE 5.8 mph - N/A   Clear
3:15 AM 12.2 °F 2.9 °F 3.2 °F 67% 30.65 in 10.0 mi NNE 5.8 mph - N/A   Clear
3:35 AM 10.4 °F 0.8 °F 3.2 °F 73% 30.66 in 10.0 mi North 5.8 mph - N/A   Clear
3:55 AM 10.4 °F 0.8 °F 3.2 °F 73% 30.66 in 10.0 mi North 5.8 mph - N/A   Clear
4:15 AM 10.4 °F -0.4 °F 3.2 °F 73% 30.67 in 10.0 mi North 6.9 mph - N/A   Clear
4:35 AM 10.4 °F -2.4 °F 5.0 °F 79% 30.67 in 10.0 mi North 9.2 mph - N/A   Clear
4:55 AM 10.4 °F 2.2 °F 5.0 °F 79% 30.67 in 10.0 mi NNE 4.6 mph - N/A   Clear
5:15 AM 10.4 °F -1.5 °F 5.0 °F 79% 30.67 in 10.0 mi North 8.1 mph - N/A   Clear
5:35 AM 10.4 °F -1.5 °F 5.0 °F 79% 30.68 in 10.0 mi North 8.1 mph - N/A   Clear
5:55 AM 10.4 °F -3.3 °F 5.0 °F 79% 30.67 in 10.0 mi North 10.4 mph - N/A   Clear
6:15 AM 10.4 °F -1.5 °F 5.0 °F 79% 30.68 in 10.0 mi NNE 8.1 mph - N/A   Clear
6:35 AM 10.4 °F -1.5 °F 5.0 °F 79% 30.68 in 10.0 mi NNE 8.1 mph - N/A   Clear
6:55 AM 10.4 °F -0.4 °F 3.2 °F 73% 30.69 in 10.0 mi North 6.9 mph - N/A   Clear
7:15 AM 10.4 °F -0.4 °F 3.2 °F 73% 30.69 in 10.0 mi NNE 6.9 mph - N/A   Clear
7:35 AM 10.4 °F 0.8 °F 3.2 °F 73% 30.70 in 10.0 mi NNE 5.8 mph - N/A   Clear
7:55 AM 10.4 °F -1.5 °F 5.0 °F 79% 30.70 in 10.0 mi NNE 8.1 mph - N/A   Clear
8:15 AM 10.4 °F -3.3 °F 5.0 °F 79% 30.70 in 10.0 mi NE 10.4 mph - N/A   Clear
8:35 AM 12.2 °F -1.8 °F 5.0 °F 73% 30.70 in 10.0 mi NNE 11.5 mph - N/A   Clear
8:55 AM 12.2 °F -1.0 °F 5.0 °F 73% 30.70 in 10.0 mi NE 10.4 mph - N/A   Clear
9:15 AM 14.0 °F 2.0 °F 6.8 °F 73% 30.70 in 10.0 mi NE 9.2 mph - N/A   Clear
9:35 AM 14.0 °F 1.2 °F 6.8 °F 73% 30.71 in 10.0 mi ENE 10.4 mph - N/A   Clear
9:55 AM 15.8 °F 2.7 °F 6.8 °F 68% 30.70 in 10.0 mi NE 11.5 mph - N/A   Clear
10:15 AM 17.6 °F 7.3 °F 6.8 °F 63% 30.70 in 10.0 mi NE 8.1 mph - N/A   Clear
10:35 AM 17.6 °F 6.4 °F 6.8 °F 63% 30.70 in 10.0 mi ENE 9.2 mph - N/A   Clear
10:55 AM 19.4 °F 10.4 °F 6.8 °F 58% 30.70 in 10.0 mi ENE 6.9 mph - N/A   Clear
11:15 AM 19.4 °F 7.9 °F 6.8 °F 58% 30.69 in 10.0 mi NE 10.4 mph - N/A   Clear
11:35 AM 21.2 °F 11.7 °F 5.0 °F 50% 30.67 in 10.0 mi NE 8.1 mph - N/A   Clear
11:55 AM 21.2 °F 10.9 °F 5.0 °F 50% 30.66 in 10.0 mi ENE 9.2 mph - N/A   Clear
12:15 PM 21.2 °F 11.7 °F 5.0 °F 50% 30.64 in 10.0 mi East 8.1 mph - N/A   Clear
12:35 PM 23.0 °F 15.8 °F 5.0 °F 46% 30.63 in 10.0 mi ENE 5.8 mph - N/A   Clear
12:55 PM 23.0 °F 12.4 °F 5.0 °F 46% 30.62 in 10.0 mi ENE 10.4 mph - N/A   Clear
1:15 PM 23.0 °F 13.1 °F 5.0 °F 46% 30.61 in 10.0 mi NE 9.2 mph - N/A   Clear
1:35 PM 23.0 °F 13.9 °F 5.0 °F 46% 30.60 in 10.0 mi NNE 8.1 mph - N/A   Clear
1:55 PM 23.0 °F 13.1 °F 5.0 °F 46% 30.58 in 10.0 mi NE 9.2 mph - N/A   Clear
2:15 PM 24.8 °F 14.6 °F 5.0 °F 43% 30.58 in 10.0 mi NE 10.4 mph - N/A   Clear
2:35 PM 24.8 °F 15.3 °F 5.0 °F 43% 30.56 in 10.0 mi East 9.2 mph - N/A   Clear
2:55 PM 23.0 °F 13.1 °F 3.2 °F 43% 30.55 in 10.0 mi ENE 9.2 mph - N/A   Clear
3:15 PM 23.0 °F 13.9 °F 5.0 °F 46% 30.54 in 10.0 mi ENE 8.1 mph - N/A   Clear
3:35 PM 23.0 °F 12.4 °F 5.0 °F 46% 30.52 in 10.0 mi ENE 10.4 mph - N/A   Clear
3:55 PM 23.0 °F 13.1 °F 5.0 °F 46% 30.52 in 10.0 mi ENE 9.2 mph - N/A   Clear
4:15 PM 23.0 °F 11.1 °F 5.0 °F 46% 30.52 in 10.0 mi NE 12.7 mph - N/A   Clear
4:35 PM 23.0 °F 13.9 °F 5.0 °F 46% 30.51 in 10.0 mi NE 8.1 mph - N/A   Clear
4:55 PM 23.0 °F 13.9 °F 5.0 °F 46% 30.49 in 10.0 mi NE 8.1 mph - N/A   Clear
5:15 PM 23.0 °F 13.9 °F 5.0 °F 46% 30.49 in 10.0 mi NE 8.1 mph - N/A   Clear
5:35 PM 23.0 °F 15.8 °F 6.8 °F 50% 30.50 in 10.0 mi ENE 5.8 mph - N/A   Clear
5:55 PM 23.0 °F 15.8 °F 6.8 °F 50% 30.51 in 10.0 mi ENE 5.8 mph - N/A   Clear
6:15 PM 21.2 °F 14.9 °F 6.8 °F 54% 30.51 in 10.0 mi ENE 4.6 mph - N/A   Clear
6:35 PM 21.2 °F - 8.6 °F 58% 30.52 in 10.0 mi Calm Calm - N/A   Clear
6:55 PM 21.2 °F - 6.8 °F 54% 30.52 in 10.0 mi Calm Calm - N/A   Clear
7:15 PM 21.2 °F - 8.6 °F 58% 30.50 in 10.0 mi Calm Calm - N/A   Scattered Clouds
7:35 PM 23.0 °F 15.8 °F 6.8 °F 50% 30.50 in 10.0 mi East 5.8 mph - N/A   Overcast
7:55 PM 23.0 °F 14.7 °F 6.8 °F 50% 30.49 in 10.0 mi East 6.9 mph - N/A   Overcast
8:15 PM 23.0 °F 14.7 °F 6.8 °F 50% 30.48 in 10.0 mi East 6.9 mph - N/A   Overcast
8:35 PM 23.0 °F 14.7 °F 6.8 °F 50% 30.48 in 10.0 mi East 6.9 mph - N/A   Overcast
8:55 PM 23.0 °F 14.7 °F 6.8 °F 50% 30.48 in 10.0 mi East 6.9 mph - N/A   Overcast
9:15 PM 23.0 °F 13.9 °F 6.8 °F 50% 30.47 in 10.0 mi East 8.1 mph - N/A   Overcast
9:35 PM 23.0 °F 14.7 °F 6.8 °F 50% 30.45 in 10.0 mi East 6.9 mph - N/A   Overcast
9:55 PM 23.0 °F 14.7 °F 6.8 °F 50% 30.44 in 10.0 mi East 6.9 mph - N/A   Overcast
10:15 PM 23.0 °F 13.9 °F 8.6 °F 54% 30.43 in 10.0 mi East 8.1 mph - N/A   Overcast
10:35 PM 23.0 °F 13.9 °F 6.8 °F 50% 30.42 in 10.0 mi East 8.1 mph - N/A   Overcast
10:55 PM 23.0 °F 12.4 °F 6.8 °F 50% 30.41 in 10.0 mi East 10.4 mph - N/A   Scattered Clouds
11:15 PM 23.0 °F 14.7 °F 8.6 °F 54% 30.40 in 10.0 mi East 6.9 mph - N/A   Scattered Clouds
11:35 PM 23.0 °F 13.1 °F 8.6 °F 54% 30.39 in 10.0 mi East 9.2 mph - N/A   Overcast
11:55 PM 23.0 °F 13.1 °F 8.6 °F 54% 30.39 in 10.0 mi East 9.2 mph - N/A   Overcast